{"data":{"norad_id":59577,"intl_designator":"2024-076P","name":"STARLINK-31692","alt_names":[],"object_type":"PAYLOAD","status":"ACTIVE","operator":null,"country":"US","launch_date":"2024-04-23","launch_site_code":"AFETR","launch_vehicle":null,"mission":null,"orbit_class":"UNKNOWN","rcs_meters":null,"size_class":null,"mass_kg":null,"dimensions":null,"purposes":["comms"],"wikipedia_slug":null,"has_3d_model":false,"image_url":null,"decayed_at":null,"tle_current":{"epoch":"2026-09-21T12:34:25.670208Z","epoch_age_seconds":79689,"freshness":"FRESH","line1":"1 59577U 24076P   26264.52390822  .00049317  00000+0  10285-2 0  9994","line2":"2 59577  42.9990 332.5448 0016440  24.8115 335.3531 15.44657233136578","mean_motion":15.44657233,"eccentricity":0.001644,"inclination_deg":42.999,"raan_deg":332.5448,"arg_perigee_deg":24.8115,"mean_anomaly_deg":335.3531,"bstar":0.0010285,"rev_number":13657,"period_min":93.22456589306,"perigee_km":421.18891252656,"apogee_km":443.58191021514,"semimajor_km":6810.5224113708,"source":"CELESTRAK","updated_at":"2026-09-22T09:00:49.003676Z"}}}